Lid_Strength_Index
-0 1 1 3 7 8 9 8 5 6 6 4 4 5 5 5 7 9 1 0 0 -0 -1 -1 -1 -1 -1 -1 -1 -1 -1 -1 -1 -1 -1 -1 -1 -1 -1 -1 -1 -1 -1 -1 -1 -1 -1 -1 -1
2 1 2 4 9 10 9 7 7 5 4 4 4 4 5 6 3 3 2 0 -0 -0 -1 -1 -1 -1 -1 -1 -1 -1 -1 -1 -1 -1 -1 -1 -1 -1 -1 -1 -1 -1 -1 -1 -1 -1 -1 -1 -1
2 1 5 7 8 10 9 8 7 5 5 5 6 4 4 5 3 3 1 0 -0 -0 -1 -1 -1 -1 -1 -1 -1 -1 -1 -1 -1 -1 -1 -1 -1 -1 -1 -1 -1 -1 -1 -1 -1 -1 -1 -1 -1
3 3 5 9 9 8 8 8 7 6 6 5 5 7 4 2 2 1 0 0 0 0 -1 -1 -1 -1 -1 -1 -1 -1 -1 -1 -1 -1 -1 -1 -1 -1 -1 -1 -1 -1 -1 -1 -1 -1 -1 -1 -1
3 4 8 9 9 8 7 7 7 7 6 6 5 6 6 2 3 3 0 0 0 0 -1 -1 -1 -1 -1 -1 -1 -1 -1 -1 -1 -1 -1 -1 -1 -1 -1 -1 -1 -1 -1 -1 -1 -1 -1 -1 -1
6 5 9 10 9 8 7 6 6 6 6 5 5 5 4 1 2 3 0 0 -0 -0 -1 -1 -1 -1 -1 -1 -1 -1 -1 -1 -1 -1 -1 -1 -1 -1 -1 -1 -1 -1 -1 -1 -1 -1 -1 -1 -1
7 8 10 9 10 9 8 6 7 7 6 6 5 6 4 2 1 2 0 -0 -0 -0 -0 -1 -1 -1 -1 -1 -1 -1 -1 -1 -1 -1 -1 -1 -1 -1 -1 -1 -1 -1 -1 -1 -1 -1 -1 -1 -1
6 7 10 9 10 10 7 7 7 7 7 5 5 7 5 2 2 2 0 0 0 -0 -0 -0 -1 -1 -1 -1 -1 -1 -1 -1 -1 -1 -1 -1 -1 -1 -1 -1 -1 -1 -1 -1 -1 -1 -1 -1 -2
7 10 11 10 10 9 8 8 7 6 7 6 5 5 4 3 3 2 1 1 1 1 0 -0 -0 -1 -1 -1 -1 -1 -1 -1 -1 -1 -1 -1 -2 -2 -2 -2 -1 -1 -1 -1 -1 -1 -2 -1 -2
8 10 11 9 9 9 8 8 7 8 8 8 7 5 4 3 3 3 3 2 2 2 1 0 -0 -1 -1 -1 -1 -2 -1 -1 -2 -2 -2 -2 -2 -2 -2 -2 -1 -1 -1 -1 -1 -2 -2 -1 -1
8 10 9 8 8 7 8 8 7 8 8 7 7 6 4 4 3 3 3 3 1 1 1 0 -0 -1 -1 -0 -1 -1 -1 -1 -1 -2 -2 -2 -1 -1 -1 -1 -2 -2 -2 -1 -2 -1 -1 -1 -1
10 8 8 7 7 7 8 7 8 7 7 5 5 5 4 4 4 4 3 3 1 1 1 1 0 -0 -1 -1 -0 -1 -0 -1 -1 -1 -2 -1 -1 -1 -1 -1 -1 -2 -2 -2 -1 -1 -2 -1 -1
8 8 7 5 5 5 5 6 7 7 6 6 6 5 5 4 4 3 2 2 2 1 1 1 0 0 -0 -1 -0 -0 -0 -0 -1 -1 -1 -1 -1 -1 -1 -1 -1 -1 -2 -1 -1 -1 -1 -2 -1
6 6 5 4 4 4 6 6 6 5 4 6 6 6 5 4 3 3 2 2 1 1 1 1 1 0 -0 -0 -0 -0 -1 -1 -1 -1 -1 -2 -1 -1 -1 -1 -1 -1 -1 -1 -1 -1 -1 -2 -1
5 7 6 5 6 6 5 7 6 4 3 5 5 5 5 4 3 3 2 2 1 1 0 0 1 0 0 -0 -0 -0 -1 -1 -1 -1 -2 -2 -2 -1 -2 -1 -1 -1 -1 -1 -2 -1 -1 -1 -1
7 7 9 6 5 5 6 9 5 4 4 4 4 4 5 4 3 2 2 1 0 0 1 0 0 1 0 -0 -0 -0 -1 -1 -1 -1 -1 -1 -1 -2 -1 -1 -1 -1 -1 -1 -1 -1 -0 -1 -1
7 10 9 8 5 6 7 8 5 4 4 5 4 4 3 3 4 2 2 1 0 0 0 1 0 1 1 0 -0 -0 -1 -0 -1 -1 -1 -1 -1 -1 -1 -1 -1 -1 -1 -1 -1 -1 -1 -1 -0
10 10 9 9 7 6 7 8 6 4 5 5 4 4 4 3 3 2 2 1 0 0 0 0 1 1 0 0 0 -0 -0 -0 -1 -1 -1 -1 -1 -1 -1 -1 -1 -1 -0 -0 -0 -1 -1 -1 0
8 9 10 8 6 7 8 8 7 5 5 5 5 4 4 4 2 1 2 1 0 1 1 1 1 1 1 1 2 1 1 0 0 -0 -1 -1 -1 -1 -1 -0 -0 -1 -0 -0 -0 -0 0 -0 -1
8 10 10 8 7 8 8 9 7 6 6 5 5 5 4 4 3 2 1 1 1 1 1 2 1 1 1 1 1 1 1 0 -0 -0 -1 -1 -1 -1 -1 -1 -0 -1 -0 -0 -0 -0 0 -0 0
9 10 10 10 8 7 8 10 8 6 5 5 4 4 4 4 4 3 2 1 1 1 1 2 1 1 1 0 1 1 0 0 1 0 0 -0 -1 -1 -1 -1 -1 -1 -1 0 -0 0 0 1 1
11 7 9 10 11 14 9 18 10 8 7 6 5 5 4 3 3 3 2 2 1 1 1 1 1 1 1 0 1 1 2 2 1 1 0 -0 -1 -1 -1 -1 -1 -1 -0 -0 0 -1 -1 0 1
10 7 9 9 11 12 11 14 11 8 9 7 6 5 5 4 3 3 2 2 1 1 1 1 1 1 1 1 1 1 1 1 1 1 1 0 -1 -1 -1 -1 -1 -0 -0 -1 -0 1 1 1 1
7 8 9 10 11 18 12 13 12 10 9 8 6 6 5 4 3 3 2 1 1 1 1 1 1 1 1 1 1 1 1 1 1 1 1 1 0 0 -1 -1 -1 -1 -1 0 1 1 2 2 2
8 11 18 16 17 15 11 15 12 9 8 8 8 6 5 4 3 3 3 2 2 1 1 2 2 2 2 1 1 1 1 1 1 1 1 1 1 1 0 -0 -0 0 1 2 3 2 2 2 3
10 12 18 23 19 16 11 17 13 8 7 7 6 5 5 4 3 3 2 2 2 1 1 2 2 2 2 1 1 1 0 1 1 1 1 1 1 1 -0 -0 0 1 2 3 4 3 3 3 3
10 13 10 17 16 19 14 13 11 8 8 7 7 6 6 5 3 3 2 2 2 1 2 2 2 2 2 1 1 1 1 1 1 0 0 1 0 0 -0 1 2 2 4 3 4 4 3 4 4
9 8 15 16 22 21 14 15 17 13 11 9 9 8 6 5 4 3 2 2 1 1 1 2 2 2 2 1 1 1 1 0 1 1 1 1 0 -0 2 2 3 3 4 5 4 5 5 4 5
9 12 12 14 16 21 21 16 11 12 11 10 9 8 6 5 4 3 2 2 1 1 2 2 2 2 2 2 1 1 1 1 1 1 1 1 0 2 3 3 5 5 5 5 5 5 6 6 6
7 10 11 18 19 17 18 16 8 9 9 8 8 8 6 5 4 3 2 2 2 2 3 3 3 3 2 1 2 2 1 1 1 1 1 2 3 4 5 5 6 7 6 6 6 7 7 8 7